TimeMDT,TemperatureF,Dew PointF,Humidity,Sea Level PressureIn,VisibilityMPH,Wind Direction,Wind SpeedMPH,Gust SpeedMPH,PrecipitationIn,Events,Conditions,WindDirDegrees,DateUTC
12:53 AM,75.0,48.9,40,29.72,10.0,SSW,19.6,26.5,N/A,,Clear,210,2013-07-12 06:53:00
1:53 AM,75.9,43.0,31,29.70,10.0,WSW,12.7,-,N/A,,Clear,240,2013-07-12 07:53:00
2:53 AM,73.0,46.0,38,29.72,10.0,West,11.5,-,N/A,,Clear,280,2013-07-12 08:53:00
3:53 AM,71.1,46.0,41,29.73,10.0,WNW,4.6,-,N/A,,Clear,290,2013-07-12 09:53:00
4:53 AM,66.9,48.0,51,29.75,10.0,WSW,3.5,-,N/A,,Clear,250,2013-07-12 10:53:00
5:53 AM,68.0,48.9,50,29.76,10.0,NW,5.8,-,N/A,,Clear,320,2013-07-12 11:53:00
6:53 AM,70.0,50.0,49,29.76,10.0,NNW,11.5,-,N/A,,Clear,340,2013-07-12 12:53:00
7:53 AM,71.1,51.1,49,29.79,10.0,North,6.9,-,N/A,,Clear,350,2013-07-12 13:53:00
8:53 AM,73.9,50.0,43,29.81,10.0,North,11.5,18.4,N/A,,Clear,10,2013-07-12 14:53:00
9:53 AM,75.9,50.0,40,29.81,10.0,North,12.7,-,N/A,,Clear,360,2013-07-12 15:53:00
10:53 AM,79.0,50.0,36,29.83,10.0,NNW,6.9,-,N/A,,Scattered Clouds,340,2013-07-12 16:53:00
11:53 AM,82.0,50.0,33,29.83,10.0,NE,6.9,-,N/A,,Clear,40,2013-07-12 17:53:00
12:53 PM,82.9,48.0,29,29.81,10.0,Calm,Calm,-,N/A,,Clear,0,2013-07-12 18:53:00
1:53 PM,88.0,46.0,23,29.78,10.0,South,10.4,-,N/A,,Partly Cloudy,180,2013-07-12 19:53:00
2:45 PM,78.8,50.0,36,30.10,10.0,WNW,8.1,27.6,N/A,,Mostly Cloudy,300,2013-07-12 20:45:00
2:53 PM,80.1,46.9,31,29.81,10.0,NW,9.2,-,N/A,,Mostly Cloudy,310,2013-07-12 20:53:00
3:27 PM,78.8,50.0,36,30.11,10.0,West,11.5,-,0.00,Rain-Thunderstorm,Light Rain,270,2013-07-12 21:27:00
3:42 PM,73.4,55.4,53,30.13,9.0,WSW,17.3,-,0.00,Rain,Light Rain,240,2013-07-12 21:42:00
3:53 PM,71.1,57.0,61,29.88,6.0,SW,18.4,-,0.00,Rain,Light Rain,230,2013-07-12 21:53:00
4:20 PM,68.0,59.0,73,30.14,10.0,West,11.5,-,0.02,Rain,Light Rain,270,2013-07-12 22:20:00
4:49 PM,68.0,57.2,68,30.15,6.0,WNW,8.1,-,0.03,Rain-Thunderstorm,Light Rain,290,2013-07-12 22:49:00
4:53 PM,69.1,57.9,68,29.90,10.0,Calm,Calm,-,0.03,Rain-Thunderstorm,Light Rain,0,2013-07-12 22:53:00
5:04 PM,69.8,60.8,73,30.15,10.0,Calm,Calm,-,0.00,Rain,Light Rain,0,2013-07-12 23:04:00
5:53 PM,70.0,59.0,68,29.90,10.0,SE,8.1,-,0.00,,Scattered Clouds,140,2013-07-12 23:53:00
6:53 PM,69.1,55.9,63,29.88,10.0,SSE,16.1,24.2,N/A,,Overcast,160,2013-07-13 00:53:00
7:53 PM,68.0,57.0,68,29.87,10.0,Calm,Calm,-,N/A,,Partly Cloudy,0,2013-07-13 01:53:00
8:53 PM,66.9,57.9,73,29.90,10.0,East,4.6,-,N/A,,Mostly Cloudy,80,2013-07-13 02:53:00
9:53 PM,66.0,57.9,75,29.92,10.0,NNW,10.4,-,0.00,,Overcast,330,2013-07-13 03:53:00
10:53 PM,64.9,59.0,81,29.93,10.0,East,6.9,-,N/A,,Scattered Clouds,100,2013-07-13 04:53:00
11:53 PM,64.0,57.9,80,29.89,10.0,East,4.6,-,N/A,,Clear,80,2013-07-13 05:53:00